McAllen, TX

4:08 AM CDT on March 23, 2017 (GMT -0500)
McAllen Miller International

Weather History for KMFE - February, 2014

Change the Weather History Date:

Monday, February 24, 2014

  Actual Average Record
Temperature  
Mean Temperature 74 °F 66 °F  
Max Temperature 78 °F 77 °F 97 °F (2011)
Min Temperature 69 °F 56 °F 33 °F (1968)
Degree Days  
Heating Degree Days 0 3  
Month to date heating degree days 157 97  
Since 1 July heating degree days 758 524  
Cooling Degree Days 9 4  
Month to date cooling degree days 98 78  
Year to date cooling degree days 114 140  
Growing Degree Days 24 (Base 50)    
Moisture  
Dew Point 70 °F    
Average Humidity 88    
Maximum Humidity 100    
Minimum Humidity 76    
Precipitation  
Precipitation 0.14 in 0.03 in 0.99 in (1985)
Month to date precipitation 0.18 0.97  
Year to date precipitation 0.84 2.02  
Sea Level Pressure  
Sea Level Pressure 29.98 in    
Wind  
Wind Speed 6 mph (East)    
Max Wind Speed 15 mph    
Max Gust Speed 72 mph    
Visibility 5 miles    
Events Rain    
T = Trace of Precipitation, MM = Missing Value Source: NWS Daily Summary

Daily Weather History Graph

Daily Weather History Graph

Search for Another Location

Airport or City:

Trip Planner

Search our weather history database for the weather conditions in past years. The results will help you decide how hot, cold, wet, or windy it might be!

Date:

Astronomy

Feb. 24, 2014 Rise Set
Actual Time 7:01 AM CST 6:31 PM CST
Civil Twilight 6:37 AM CST 6:54 PM CST
Nautical Twilight 6:10 AM CST 7:21 PM CST
Astronomical Twilight 5:44 AM CST 7:48 PM CST
Moon 2:43 AM CST (2/24) 1:51 PM CST (2/24)
Length of Visible Light 12h 17m
Length of Day
11h 30m
Waning Crescent, 28% of the Moon is Illuminated
Feb 24
Waning Crescent
Mar 1
New
Mar 8
First Quarter
Mar 16
Full
Mar 23
Last Quarter

Hourly Weather History & Observations

Time (CST) Temp. Dew Point Humidity Pressure Visibility Wind Dir Wind Speed Gust Speed Precip Events Conditions
12:53 AM 72.0 °F 69.1 °F 91% 29.95 in 10.0 mi East 3.5 mph - N/A   Overcast
1:48 AM 71.6 °F 69.8 °F 94% 29.95 in 8.0 mi East 6.9 mph - N/A   Overcast
1:53 AM 71.1 °F 69.1 °F 93% 29.95 in 7.0 mi East 6.9 mph - N/A   Overcast
2:04 AM 69.8 °F 69.8 °F 100% 29.95 in 2.5 mi East 5.8 mph - N/A   Overcast
2:15 AM 69.8 °F 69.8 °F 100% 29.96 in 1.5 mi East 3.5 mph - N/A   Overcast
2:53 AM 70.0 °F 69.1 °F 97% 29.94 in 2.5 mi East 5.8 mph - N/A   Overcast
3:23 AM 69.8 °F 69.8 °F 100% 29.94 in 1.8 mi East 4.6 mph - N/A   Overcast
3:34 AM 69.8 °F 69.8 °F 100% 29.94 in 2.5 mi ESE 3.5 mph - N/A   Overcast
3:53 AM 70.0 °F 69.1 °F 97% 29.94 in 1.2 mi East 5.8 mph - N/A   Overcast
4:53 AM 70.0 °F 69.1 °F 97% 29.95 in 1.5 mi East 3.5 mph - N/A   Overcast
5:16 AM 69.8 °F 69.8 °F 100% 29.96 in 2.0 mi Calm Calm - N/A   Overcast
5:45 AM 69.8 °F 69.8 °F 100% 29.96 in 1.0 mi Calm Calm - N/A   Overcast
5:53 AM 70.0 °F 69.1 °F 97% 29.96 in 1.0 mi Calm Calm - N/A   Overcast
6:18 AM 69.8 °F 69.8 °F 100% 29.97 in 2.0 mi Calm Calm - N/A   Overcast
6:39 AM 69.8 °F 69.8 °F 100% 29.97 in 3.0 mi NNE 3.5 mph - N/A   Mostly Cloudy
6:53 AM 70.0 °F 69.1 °F 97% 29.98 in 4.0 mi NNE 3.5 mph - N/A   Scattered Clouds
6:58 AM 69.8 °F 69.8 °F 100% 29.98 in 4.0 mi Calm Calm - N/A   Partly Cloudy
7:14 AM 69.8 °F 69.8 °F 100% 29.99 in 4.0 mi NE 3.5 mph - N/A   Scattered Clouds
7:51 AM 71.6 °F 69.8 °F 94% 29.98 in 2.5 mi East 8.1 mph - N/A   Mostly Cloudy
7:53 AM 71.1 °F 70.0 °F 96% 29.98 in 2.5 mi Variable 5.8 mph - N/A   Mostly Cloudy
8:13 AM 71.6 °F 69.8 °F 94% 30.00 in 3.0 mi NE 4.6 mph - 0.00 in Rain Light Rain
8:28 AM 71.6 °F 69.8 °F 94% 29.98 in 2.5 mi ENE 10.4 mph - 0.00 in Rain Light Rain
8:53 AM 71.1 °F 71.1 °F 100% 29.99 in 0.8 mi NE 4.6 mph - 0.00 in Rain Light Rain
9:28 AM 71.6 °F 71.6 °F 100% 30.02 in 1.2 mi NE 5.8 mph - 0.00 in Rain Light Rain
9:48 AM 71.6 °F 71.6 °F 100% 30.04 in 2.5 mi Calm Calm - 0.00 in   Overcast
9:53 AM 72.0 °F 71.1 °F 97% 30.05 in 3.0 mi Calm Calm - 0.00 in   Overcast
10:07 AM 71.6 °F 69.8 °F 94% 30.04 in 1.8 mi ENE 3.5 mph - 0.03 in Rain Heavy Rain
10:22 AM 71.6 °F 71.6 °F 100% 30.02 in 2.0 mi East 11.5 mph 72.5 mph 0.06 in Rain Light Rain
10:33 AM 71.6 °F 71.6 °F 100% 30.01 in 4.0 mi East 12.7 mph - 0.06 in Rain Light Rain
10:53 AM 72.0 °F 71.1 °F 97% 30.03 in 6.0 mi ESE 4.6 mph - 0.06 in   Overcast
11:53 AM 73.0 °F 71.1 °F 93% 30.04 in 5.0 mi East 5.8 mph - 0.00 in   Overcast
12:08 PM 73.4 °F 71.6 °F 94% 30.03 in 5.0 mi ESE 8.1 mph - 0.00 in Rain Light Rain
12:15 PM 73.4 °F 71.6 °F 94% 30.03 in 4.0 mi East 4.6 mph - 0.02 in Rain Heavy Rain
12:53 PM 73.9 °F 72.0 °F 93% 30.01 in 5.0 mi Calm Calm - 0.06 in Rain Light Rain
1:22 PM 75.2 °F 71.6 °F 89% 30.00 in 8.0 mi East 8.1 mph - 0.00 in Rain Light Rain
1:29 PM 75.2 °F 73.4 °F 94% 30.00 in 7.0 mi East 5.8 mph - 0.00 in Rain Light Rain
1:53 PM 75.9 °F 72.0 °F 87% 29.98 in 9.0 mi ESE 8.1 mph - 0.00 in   Overcast
2:14 PM 77.0 °F 73.4 °F 89% 29.97 in 8.0 mi East 10.4 mph - 0.00 in   Mostly Cloudy
2:24 PM 78.8 °F 73.4 °F 83% 29.97 in 9.0 mi East 12.7 mph - 0.00 in   Scattered Clouds
2:53 PM 75.9 °F 71.1 °F 85% 29.97 in 10.0 mi East 12.7 mph - 0.00 in   Mostly Cloudy
3:53 PM 73.0 °F 68.0 °F 84% 29.94 in 10.0 mi ENE 10.4 mph - 0.02 in   Mostly Cloudy
4:53 PM 77.0 °F 69.1 °F 76% 29.93 in 10.0 mi East 8.1 mph - N/A   Clear
5:53 PM 75.0 °F 71.1 °F 87% 29.93 in 10.0 mi ENE 5.8 mph - N/A   Clear
6:53 PM 75.0 °F 71.1 °F 87% 29.94 in 10.0 mi East 5.8 mph - N/A   Clear
7:53 PM 71.1 °F 68.0 °F 90% 29.96 in 10.0 mi SE 6.9 mph - N/A   Clear
8:53 PM 71.1 °F 68.0 °F 90% 29.98 in 10.0 mi SE 8.1 mph - N/A   Mostly Cloudy
9:37 PM 71.6 °F 69.8 °F 94% 30.00 in 10.0 mi ESE 3.5 mph - N/A   Overcast
9:53 PM 71.1 °F 68.0 °F 90% 29.99 in 9.0 mi ESE 5.8 mph - N/A   Overcast
10:18 PM 69.8 °F 68.0 °F 94% 29.99 in 8.0 mi East 4.6 mph - N/A   Scattered Clouds
10:25 PM 69.8 °F 68.0 °F 94% 29.99 in 8.0 mi East 4.6 mph - N/A   Scattered Clouds
10:48 PM 70.0 °F 68.0 °F 93% 29.98 in 7.0 mi East 4.6 mph - N/A   Mostly Cloudy
11:04 PM 69.8 °F 68.0 °F 94% 29.99 in 7.0 mi ESE 4.6 mph - N/A   Scattered Clouds
11:06 PM 69.8 °F 68.0 °F 94% 29.99 in 7.0 mi ESE 5.8 mph - N/A   Mostly Cloudy
11:53 PM 70.0 °F 69.1 °F 97% 29.98 in 6.0 mi ESE 4.6 mph - N/A   Overcast